Зольтау

Германия     52°59′17″N   9°50′12″E
темп.,
°C
ветер,
м/с
пор.,
м/с
влажн.,
%
обл.,
%
осадки,
мм/ч
давл.,
гПа
погр.,
м
13 мая, чт
чт1323:00+10сз2491100 0.0 1011182
02:00+8сз2497100 0.0 1010127
05:00+8сз2490100 0.0 1009155
08:00+10сз3484100 0.0 1008291
11:00+14ссз3470100 0.0 10081030
14:00+13ссз4580100 0.6 1007742
17:00+11ссв3795100 1.1 1006483
20:00+10сз2598100 4.2 1006354
14 мая, пт
пт1423:00+9сз3798100 3.2 1006384
02:00+8сз389898 4.6 1006375
05:00+7зсз3898100 0.4 1006363
08:00+8зсз3796100 2.1 1006345
11:00+11з3585100 0.6 1007640
14:00+15зсз3557100 0.6 10071247
17:00+15сз3557100 0.0 10071434
20:00+12с237965 0.0 1007115
15 мая, сб
сб1523:00+8ссв11924 0.0 100810
02:00+6ююв00945 0.0 100710
05:00+6ю11963 0.0 100711
08:00+10ююз35889 0.1 1007286
11:00+14юз3472100 0.4 1005981
14:00+13ююз4581100 3.9 1004796
17:00+13юз458163 3.1 1003962
20:00+11юз2590100 5.1 1003160
16 мая, вс
вс1623:00+9ююз259599 0.3 1003106
02:00+8юз499973 0.4 1003303
05:00+8юз3997100 0.0 1003411
08:00+9ююз379496 0.1 1003461
11:00+10юз5792100 0.5 1004699
14:00+11юз4887100 1.4 1004757
17:00+13зюз577917 1.1 10031113
20:00+11юз3890100 2.8 1003326
17 мая, пн
пн1723:00+8ю249662 0.1 100373
02:00+7ююз249718 0.1 100386
05:00+6ююз249883 0.0 100386
08:00+9ююз36926 0.0 1004284
11:00+14юз457032 0.5 10041226
14:00+10зюз4109377 1.9 1005535
17:00+13юз467655 0.3 1004871
20:00+11юз2591100 1.3 1004217